BREEZE-M DEB (TANK), 40884

Orbit data source: Space-Track

BREEZE-M DEB (TANK), 40884 is space debris in HEO originally from a launch on Fri, 28 Aug 2015 UTC launched from the Tyuratam Missile And Space Complex (TTMTR). Debris objects in space refer to the collection of defunct objects orbiting the Earth. Examples of debris include non-operational satellites, rocket bodies, and fragments generated from explosions, collisions, or faulty payload assembly.

Loading next visibility...
Identifier
40884, 2015-042C
Orbit
HEO
Country
Flag of CISCIS
Related business
Manufacturer
Khrunichev
Mission
Spacecraft
Bus & Motor
BRIZ TANK, Unknown motor
Mass
~1,000 kg wet, 1,000 kg dry
Launch date (UTC)
2015-08-28 (11 years ago)
Launch vehicle
Unknown
Launch site
Tyuratam Missile And Space Complex (TTMTR)
Object type
Payload
Rocket body
Debris
Shape & HBR
Torus, 2.0 m
Radar Cross Section
8.218 m², Large (>1 m²)

Expand to show TLE details & history
Last TLE update: 2 days ago

TLE from 2 days ago
0 BREEZE-M DEB (TANK)
1 40884U 15042C   26170.97304244  .00001424  00000-0  58243-3 0  9991
2 40884  50.7975  16.8799 5115824  41.4775 347.8368  5.36297396208888
Epoch: 2026-06-19T23:21Z
TLE epoch observation values (Epoch: 2026-06-19T23:21:10.866Z)
Latitude
-0.00006°
Longitude
118.39208°
Altitude
976.255 km
Speed
8.917 km/s
True Right ascension
01h 07m 31s
True Declination
0° 00' 00"
Sunlit
Object was in daylight at epoch
Visualization orbit readout
Latitude
Unknown
Longitude
Unknown
Altitude
Unknown
Speed
Unknown
Apparent Right ascension
Unknown
Apparent Declination
Unknown
Sunlit
N/A
Visualization observer readout
Local Sidereal Time
21:41:53
Azimuth
Unknown
Elevation
Unknown
Doppler factor
Unknown
Orbital elements
Apogee altitude
14,462.575 km
Perigee altitude
355.846 km
Semi-major axis
13,787.348 km
Eccentricity
0.51158
Inclination
50.7975°
RAAN
16.8799°
Arg. of periapsis
41.4775°
True anomaly
318.73711°
Mean anomaly
347.8368°
Eccentric anomaly
335.84001°
Mean motion
1.34067 °/min
Orbital period
268.52 mins
BSTAR
0.00058243
Loading maneuver chart data...
Computing Atmospheric mass density...
Loading historical data...
Loading historical data...
Loading historical data...
Loading historical data...
Loading historical data...
Loading historical data...
Loading historical data...
Other satellites on launch #42 in the year 2015 (2015-08-28 UTC)

Documentation

Showing up to 5 results
|